[[{"header":{"parameterUnit":"m.s-1","parameterCategory":1,"la1":30.2991,"la2":30.254,"lo1":-89.0895,"lo2":-89.0444,"dy":0.0017,"dx":0.0017,"nx":28,"ny":28,"refTime":"2025-04-08T21:00:00:Z","depth":0,"parameterNumber":2,"parameterNumberName":"U-component_of_WINDS"},"data":[0,0,0,0,0,0,0,0,0,0,0,0,0,0,0,0,0,0,0,0,0,0,0,0,0,0,0,0,0,0,0,0,0,0,0,0,0,0,0,0,0,0,0,0,0,0,0,0,0,0,0,0,0,0,0,0,0,0,0.5593,0.5594,0,0.5662,0.5663,0.5664,0.5675,0.5675,0.5674,0.5673,0.5747,0.5749,0.5751,0,0,0,0,0,0,0,0,0,0,0,0,0,0.5472,0.5474,0.5593,0.5594,0.5595,0.5662,0.5663,0.5664,0.5675,0.5675,0.5674,0.5673,0.5746,0.5749,0.5752,0,0,0,0,0,0,0,0,0,0,0,0,0,0.5531,0.5475,0.5593,0.5609,0.5611,0.5662,0.5663,0.5664,0.5676,0.5675,0.5674,0.5673,0.5745,0.5748,0.5752,0.5793,0,0,0.5764,0.5765,0,0,0,0,0,0,0,0,0.5528,0.5536,0.5606,0.5608,0.561,0.5659,0.5647,0.5708,0.5676,0.5651,0.5673,0.5672,0.5718,0.5724,0.5739,0.5797,0.58,0.5764,0.5766,0.5768,0.5769,0,0,0,0,0,0,0,0.5524,0.5533,0.5621,0.5607,0.5609,0.5612,0.562,0.5659,0.5689,0.5653,0.5654,0.5662,0.5719,0.5736,0.5741,0.5801,0.5764,0.5767,0.5769,0.5771,0.5893,0.5894,0,0,0,0,0,0,0.5517,0.5529,0.5619,0.5623,0.5566,0.5615,0.5624,0.5644,0.5689,0.5694,0.5663,0.5662,0.573,0.5737,0.5744,0.5793,0.5768,0.5771,0.5773,0.5893,0.5894,0.5895,0,0,0,0,0,0,0.5514,0.5524,0.5616,0.5576,0.5588,0.5618,0.5642,0.5646,0.5662,0.5696,0.5701,0.5673,0.5729,0.5738,0.578,0.5796,0.5773,0.5776,0.5891,0.5893,0.5894,0.5894,0,0,0,0,0,0,0.551,0.5523,0.5539,0.5577,0.559,0.5651,0.5643,0.5648,0.5669,0.5669,0.5707,0.5713,0.5729,0.5774,0.5784,0.5801,0.5779,0.589,0.5892,0.5894,0.5893,0.5895,0.5897,0,0,0,0,0,0.5506,0.5538,0.554,0.5551,0.5611,0.5652,0.566,0.5677,0.567,0.5686,0.5707,0.5712,0.5793,0.5779,0.5789,0.5808,0.5889,0.5891,0.5894,0.5891,0.5895,0.5897,0,0,0,0,0,0,0.5503,0.5543,0.5546,0.5591,0.5618,0.5654,0.5675,0.568,0.571,0.5709,0.573,0.5739,0.5779,0.5798,0.5781,0.5849,0.584,0.5845,0.5835,0.5838,0.5841,0.5835,0.5782,0,0,0,0,0,0.5507,0.5537,0.557,0.5606,0.562,0.5645,0.5663,0.5674,0.5703,0.5715,0.5739,0.5768,0.5799,0.582,0.5851,0.5895,0.5903,0.5913,0.5915,0.5917,0.5921,0.5943,0.5947,0.5902,0.5902,0.5902,0,0,0.5517,0.5542,0.556,0.5606,0.5628,0.5658,0.5654,0.5687,0.5709,0.572,0.576,0.5779,0.5812,0.5855,0.5875,0.5872,0.5935,0.592,0.5921,0.5924,0.5946,0.595,0.5954,0.5904,0.5903,0.5903,0,0,0.5549,0.5572,0.5603,0.5625,0.5658,0.5674,0.5682,0.5717,0.5729,0.577,0.5778,0.5805,0.5859,0.5882,0.5901,0.5939,0.5944,0.5949,0.5961,0.5983,0.5986,0.599,0.6002,0.6006,0.5952,0.5952,0.5952,0,0.5557,0.5603,0.5619,0.5651,0.567,0.568,0.5711,0.5732,0.5774,0.5787,0.5783,0.585,0.5873,0.592,0.5929,0.5944,0.5952,0.5944,0.5984,0.5988,0.5991,0.6003,0.6008,0.5952,0.5952,0.5952,0.5952,0,0.561,0.5641,0.5663,0.5701,0.5723,0.5755,0.5775,0.5796,0.5804,0.582,0.5861,0.5888,0.5924,0.5936,0.5946,0.5984,0.5981,0.598,0.5972,0.5995,0.6007,0.6012,0.5953,0.5953,0.5953,0.5953,0,0,0.5644,0.5689,0.5696,0.5713,0.5749,0.5774,0.5805,0.5839,0.5855,0.5884,0.591,0.5954,0.5953,0.5974,0.5986,0.6005,0.6032,0.6002,0.6003,0.6006,0.6074,0.6074,0.6079,0.6035,0.6036,0.6037,0.6071,0,0.5679,0.5735,0.575,0.5797,0.5825,0.5833,0.586,0.5885,0.5901,0.5927,0.5945,0.5976,0.5973,0.5985,0.6005,0.6024,0.6046,0.6022,0.6059,0.606,0.605,0.6085,0.6085,0.6116,0.6076,0.6076,0.6077,0,0.5729,0.5756,0.5805,0.5836,0.5848,0.5872,0.5903,0.5929,0.5957,0.5967,0.5989,0.5998,0.603,0.602,0.6065,0.6048,0.6064,0.6076,0.6078,0.6081,0.607,0.6089,0.6126,0.613,0.6084,0.6084,0.6083,0,0.5747,0.5796,0.5831,0.5845,0.5882,0.5898,0.5915,0.5942,0.596,0.5988,0.6,0.6031,0.6048,0.6072,0.6089,0.608,0.6131,0.6123,0.614,0.6139,0.615,0.6149,0.619,0.6162,0.6162,0.6162,0.6161,0,0.5785,0.5814,0.5839,0.5861,0.5894,0.591,0.5943,0.5959,0.5983,0.6007,0.6017,0.604,0.6062,0.6088,0.6101,0.6135,0.6143,0.6151,0.6155,0.615,0.6149,0.6161,0.6159,0.6163,0.6163,0.6162,0.6162,0,0.581,0.5828,0.5867,0.5898,0.5906,0.5929,0.5955,0.5976,0.5992,0.6023,0.6031,0.6056,0.6086,0.6105,0.6145,0.6154,0.619,0.6194,0.6181,0.6182,0.6197,0.6195,0.6246,0.6253,0.6221,0.6221,0.6222,0,0.5833,0.5855,0.5888,0.5905,0.5921,0.5948,0.5966,0.5983,0.6002,0.6034,0.6051,0.6082,0.6108,0.6156,0.6177,0.6207,0.621,0.6226,0.6215,0.6209,0.6209,0.6207,0.6209,0.6228,0.6228,0.6228,0.6229,0,0.5871,0.5878,0.5904,0.5933,0.5954,0.5978,0.6001,0.6015,0.6035,0.6056,0.6087,0.6106,0.6145,0.6175,0.6206,0.6223,0.6229,0.6232,0.6237,0.6232,0.6223,0.6227,0.6185,0.6231,0.623,0.623,0.623,0.623,0.5895,0.5914,0.594,0.5968,0.5987,0.6008,0.6029,0.6046,0.6072,0.6104,0.6113,0.6144,0.617,0.6212,0.6229,0.6254,0.6252,0.626,0.6262,0.6263,0.6263,0.622,0.626,0.626,0.626,0.626,0.626,0,0.5932,0.5948,0.5974,0.6006,0.6027,0.603,0.6056,0.6074,0.6101,0.6124,0.6149,0.6183,0.6212,0.6234,0.6264,0.6279,0.6283,0.6286,0.6285,0.6289,0.6264,0.6256,0.6283,0.6283,0.6283,0.6283,0.6283,0.6283,0.5954,0.5987,0.5997,0.6039,0.6055,0.6085,0.6099,0.6119,0.6137,0.6175,0.6198,0.6212,0.6235,0.6266,0.6292,0.6298,0.6308,0.6311,0.6317,0.6293,0.6291,0.6288,0.6281,0.6313,0.6313,0.634,0.634,0.634]},{"header":{"parameterUnit":"m.s-1","parameterCategory":1,"la1":30.2991,"la2":30.254,"lo1":-89.0895,"lo2":-89.0444,"dy":0.0017,"dx":0.0017,"nx":28,"ny":28,"refTime":"2025-04-08T21:00:00:Z","depth":0,"parameterNumber":3,"parameterNumberName":"V-component_of_WINDS"},"data":[0,0,0,0,0,0,0,0,0,0,0,0,0,0,0,0,0,0,0,0,0,0,0,0,0,0,0,0,0,0,0,0,0,0,0,0,0,0,0,0,0,0,0,0,0,0,0,0,0,0,0,0,0,0,0,0,0,0,3.0823,3.0822,0,3.0781,3.078,3.078,3.0739,3.0738,3.0737,3.0737,3.0691,3.0691,3.069,0,0,0,0,0,0,0,0,0,0,0,0,0,3.0863,3.0862,3.0823,3.0822,3.0822,3.0781,3.078,3.078,3.0739,3.0738,3.0737,3.0737,3.0692,3.0691,3.069,0,0,0,0,0,0,0,0,0,0,0,0,0,3.0835,3.0862,3.0823,3.0796,3.0794,3.0781,3.078,3.0779,3.0739,3.0738,3.0737,3.0736,3.0692,3.0691,3.069,3.0699,0,0,3.0687,3.0686,0,0,0,0,0,0,0,0,3.0837,3.0834,3.0801,3.0798,3.0795,3.0764,3.0777,3.0752,3.0739,3.076,3.0737,3.0736,3.0716,3.0713,3.0707,3.0697,3.0695,3.0686,3.0686,3.0685,3.0685,0,0,0,0,0,0,0,3.0839,3.0835,3.0806,3.08,3.0797,3.0785,3.078,3.0772,3.0743,3.0758,3.0755,3.075,3.0714,3.0708,3.0705,3.0694,3.0686,3.0685,3.0685,3.0684,3.0684,3.0685,0,0,0,0,0,0,3.0845,3.0837,3.0807,3.0805,3.0815,3.0785,3.078,3.0775,3.0743,3.0737,3.0751,3.0749,3.071,3.0707,3.0704,3.0709,3.0685,3.0684,3.0684,3.0683,3.0684,3.0685,0,0,0,0,0,0,3.0846,3.0843,3.0809,3.082,3.0815,3.0785,3.078,3.0774,3.0768,3.0738,3.0732,3.075,3.0709,3.0705,3.0699,3.0707,3.0684,3.0683,3.0683,3.0684,3.0685,3.0722,0,0,0,0,0,0,3.0848,3.0844,3.0849,3.0821,3.0815,3.0807,3.0781,3.0774,3.0766,3.0763,3.0735,3.073,3.0708,3.0701,3.0698,3.0705,3.0682,3.0682,3.0683,3.0684,3.0719,3.0724,3.0727,0,0,0,0,0,3.0849,3.0861,3.0849,3.0846,3.082,3.0808,3.0804,3.078,3.0767,3.077,3.075,3.0731,3.0707,3.0701,3.0697,3.0704,3.0681,3.0683,3.0684,3.0718,3.0723,3.0727,0,0,0,0,0,0,3.0891,3.0857,3.0843,3.0847,3.0831,3.0801,3.0805,3.0787,3.0773,3.077,3.074,3.0734,3.0731,3.0717,3.0711,3.0708,3.0691,3.0692,3.0718,3.0722,3.0726,3.0729,3.0681,0,0,0,0,0,3.09,3.0895,3.0865,3.0871,3.0863,3.0836,3.083,3.0812,3.0793,3.0786,3.0766,3.0748,3.0735,3.0728,3.0716,3.0717,3.0708,3.0719,3.0723,3.0726,3.0727,3.0723,3.0726,3.069,3.069,3.069,0,0,3.092,3.0901,3.0899,3.0879,3.0864,3.0857,3.083,3.0825,3.0818,3.0785,3.0778,3.0762,3.0739,3.0736,3.0734,3.0724,3.0735,3.0728,3.0731,3.073,3.0724,3.0728,3.0731,3.0691,3.069,3.069,0,0,3.0952,3.0938,3.094,3.0925,3.0903,3.0883,3.0884,3.0856,3.0844,3.0836,3.081,3.0801,3.0782,3.0765,3.0755,3.0776,3.0756,3.0772,3.0792,3.0788,3.0791,3.0793,3.0798,3.08,3.0773,3.0773,3.0774,0,3.0979,3.0968,3.0943,3.0937,3.0927,3.0897,3.0896,3.0883,3.0857,3.085,3.084,3.0812,3.0795,3.0786,3.079,3.0784,3.0781,3.0775,3.0793,3.0795,3.0797,3.0801,3.0803,3.0775,3.0775,3.0775,3.0775,0,3.1001,3.0994,3.0997,3.0973,3.0963,3.0961,3.0932,3.0925,3.0907,3.0888,3.0878,3.0856,3.0836,3.0833,3.0816,3.082,3.0814,3.0799,3.0781,3.0803,3.0806,3.0807,3.0778,3.0778,3.0777,3.0776,0,0,3.1059,3.1018,3.102,3.1006,3.0978,3.0971,3.0965,3.0946,3.0939,3.0922,3.0914,3.0896,3.0881,3.0869,3.0849,3.0846,3.0859,3.083,3.0829,3.0834,3.0858,3.0869,3.0872,3.0846,3.0847,3.0847,3.0859,0,3.1084,3.1073,3.1048,3.1044,3.1034,3.1003,3.0998,3.0978,3.0959,3.0947,3.0926,3.0913,3.0895,3.0887,3.0882,3.0859,3.0864,3.0858,3.0837,3.0836,3.0842,3.0874,3.0886,3.0899,3.0861,3.0861,3.0861,0,3.1112,3.1096,3.1091,3.106,3.1055,3.1051,3.1029,3.1019,3.0994,3.098,3.0965,3.0943,3.0932,3.0915,3.0898,3.0895,3.0884,3.0871,3.0871,3.0867,3.0849,3.0869,3.0903,3.0904,3.0863,3.0863,3.0863,0,3.1152,3.1128,3.1121,3.1112,3.1076,3.1072,3.1057,3.1032,3.1021,3.1002,3.0993,3.0973,3.0961,3.0945,3.0916,3.0908,3.0901,3.0883,3.0887,3.0887,3.0887,3.0887,3.0918,3.0882,3.0882,3.0882,3.0882,0,3.1181,3.1179,3.1138,3.1134,3.1129,3.1098,3.1093,3.1075,3.1052,3.1042,3.1014,3.1004,3.0968,3.0953,3.0931,3.0918,3.0913,3.09,3.0894,3.0902,3.0903,3.0894,3.0891,3.0883,3.0883,3.0883,3.0883,0,3.1224,3.1197,3.1187,3.1153,3.1144,3.1142,3.1112,3.1105,3.1083,3.107,3.1065,3.1031,3.1012,3.0982,3.0954,3.0938,3.0928,3.0919,3.0937,3.0933,3.0937,3.0937,3.0962,3.0963,3.0929,3.093,3.093,0,3.1244,3.1241,3.1206,3.1197,3.1183,3.1169,3.1157,3.1126,3.1115,3.1085,3.108,3.1059,3.104,3.1011,3.0982,3.0959,3.0948,3.0959,3.0945,3.0952,3.0946,3.0946,3.0944,3.0962,3.0962,3.0963,3.0963,0,3.1281,3.1267,3.1252,3.1231,3.1217,3.1199,3.1179,3.1173,3.1137,3.1125,3.1105,3.109,3.106,3.1038,3.1011,3.0993,3.0971,3.0968,3.0967,3.0974,3.0984,3.0976,3.0944,3.0967,3.0967,3.0966,3.0966,3.0966,3.1311,3.1306,3.128,3.1262,3.1244,3.1225,3.1216,3.1193,3.1176,3.115,3.1132,3.1113,3.1084,3.1046,3.1028,3.1011,3.1002,3.1001,3.1001,3.1001,3.1003,3.0987,3.1006,3.1006,3.1006,3.1005,3.1005,0,3.1344,3.1325,3.131,3.1283,3.1268,3.125,3.1226,3.1214,3.1198,3.1174,3.1155,3.1131,3.1108,3.1077,3.1052,3.1043,3.1032,3.1038,3.1037,3.1033,3.1014,3.1016,3.1047,3.1047,3.1047,3.1047,3.1047,3.1047,3.136,3.1349,3.1331,3.131,3.129,3.1271,3.1259,3.124,3.1221,3.1195,3.1176,3.1156,3.1128,3.11,3.1078,3.1069,3.106,3.1068,3.1056,3.1038,3.1035,3.1031,3.1033,3.1067,3.1067,3.1076,3.1076,3.1076]}]]